This is the latest recevied weather packets stored in our database for station/object DL3TR-13. If no packets are shown the sender has not sent any weather packets the latest 10 day(s).
| Time | Temp. | Humidity | Pressure | Rain* | Wind** | Luminosity | Snow |
|---|---|---|---|---|---|---|---|
| 1777378391 | 20.56° C | 38% | 1013.9 hPa | 0 mm | - | 752 W/m² | - |
| 1777377791 | 20.56° C | 39% | 1013.9 hPa | 0 mm | - | 756 W/m² | - |
| 1777377191 | 20° C | 37% | 1014 hPa | 0 mm | - | 708 W/m² | - |
| 1777376591 | 20° C | 40% | 1014.2 hPa | 0 mm | - | 619 W/m² | - |
| 1777375991 | 19.44° C | 41% | 1014.2 hPa | 0 mm | - | 756 W/m² | - |
| 1777375391 | 19.44° C | 43% | 1014.3 hPa | 0 mm | - | 872 W/m² | - |
| 1777374791 | 18.89° C | 44% | 1014.3 hPa | 0 mm | - | 721 W/m² | - |
| 1777374191 | 18.89° C | 42% | 1014.3 hPa | 0 mm | - | 698 W/m² | - |
| 1777373591 | 18.89° C | 40% | 1014.4 hPa | 0 mm | - | 606 W/m² | - |
| 1777372991 | 18.33° C | 39% | 1014.4 hPa | 0 mm | - | 626 W/m² | - |
| 1777372391 | 18.33° C | 39% | 1014.4 hPa | 0 mm | - | 531 W/m² | - |
| 1777371791 | 18.89° C | 40% | 1014.4 hPa | 0 mm | - | 475 W/m² | - |
| 1777371191 | 18.89° C | 41% | 1014.5 hPa | 0 mm | - | 675 W/m² | - |
| 1777370591 | 18.89° C | 41% | 1014.6 hPa | 0 mm | - | 677 W/m² | - |
| 1777369991 | 18.33° C | 43% | 1014.5 hPa | 0 mm | - | 663 W/m² | - |
| 1777369391 | 18.33° C | 45% | 1014.5 hPa | 0 mm | - | 719 W/m² | - |
| 1777368791 | 18.33° C | 43% | 1014.7 hPa | 0 mm | - | 650 W/m² | - |
| 1777368191 | 17.78° C | 43% | 1014.5 hPa | 0 mm | - | 526 W/m² | - |
| 1777367591 | 17.78° C | 42% | 1014.5 hPa | 0 mm | - | 355 W/m² | - |
| 1777366991 | 17.78° C | 48% | 1014.4 hPa | 0 mm | - | 497 W/m² | - |
| 1777366391 | 17.22° C | 50% | 1014.6 hPa | 0 mm | - | 570 W/m² | - |
| 1777365791 | 16.67° C | 51% | 1014.6 hPa | 0 mm | - | 613 W/m² | - |
| 1777365192 | 16.11° C | 55% | 1014.6 hPa | 0 mm | - | 468 W/m² | - |
| 1777364591 | 15° C | 61% | 1014.5 hPa | 0 mm | - | 589 W/m² | - |
| 1777363991 | 14.44° C | 62% | 1014.7 hPa | 0 mm | - | 478 W/m² | - |
* Rain latest hour (hover to see other rain measurements)
** Current wind speed in m/s (hover to see current wind gust speed)